AEE159 EGKK-EGCC

Flight info

Callsign AEE159
Flight time 0h 35m
Altitude 24000
Route LAM N57 WELIN DCT TIMPO DCT ELVOS DCT TNT
Aircraft A320/M-SDE3FGHIRWY/LB1

Departure

Time 2026-05-07 11:13
Airport London Gatwick Airport (EGKK)

Arrival

Time 2026-05-07 11:48
Airport Manchester Airport (EGCC)
Time Latitude Longitude Altitude Speed Heading
2026-05-07 11:00 51.15143 -0.19463 195 ft 0 kts 77°
2026-05-07 11:07 51.15142 -0.19472 210 ft 4 kts 76°
2026-05-07 11:07 51.15135 -0.19518 204 ft 5 kts 76°
2026-05-07 11:07 51.15131 -0.19563 208 ft 4 kts 110°
2026-05-07 11:08 51.15145 -0.19584 217 ft 0 kts 166°
2026-05-07 11:09 51.15142 -0.19583 213 ft 2 kts 169°
2026-05-07 11:10 51.15094 -0.19569 208 ft 12 kts 169°
2026-05-07 11:10 51.15003 -0.19608 208 ft 16 kts 250°
2026-05-07 11:10 51.14975 -0.19793 208 ft 19 kts 256°
2026-05-07 11:10 51.14947 -0.20009 204 ft 21 kts 259°
2026-05-07 11:11 51.14915 -0.20242 204 ft 23 kts 257°
2026-05-07 11:11 51.14885 -0.20476 203 ft 18 kts 259°
2026-05-07 11:11 51.14824 -0.20648 211 ft 19 kts 208°
2026-05-07 11:11 51.14691 -0.20707 208 ft 20 kts 174°
2026-05-07 11:12 51.14592 -0.20620 208 ft 14 kts 91°
2026-05-07 11:12 51.14627 -0.20355 213 ft 57 kts 77°
2026-05-07 11:12 51.14777 -0.19288 208 ft 136 kts 77°
2026-05-07 11:12 51.15008 -0.17622 583 ft 164 kts 77°
2026-05-07 11:13 51.15277 -0.15767 1481 ft 176 kts 73°
2026-05-07 11:13 51.15509 -0.13839 2427 ft 174 kts 76°
2026-05-07 11:13 51.15742 -0.11981 3142 ft 172 kts 73°
2026-05-07 11:13 51.16018 -0.10019 3436 ft 193 kts 73°
2026-05-07 11:14 51.16338 -0.07819 3718 ft 215 kts 71°
2026-05-07 11:14 51.17066 -0.05640 4038 ft 235 kts 49°
2026-05-07 11:14 51.18130 -0.03508 4597 ft 252 kts 49°
2026-05-07 11:14 51.19232 -0.01275 5012 ft 259 kts 49°
2026-05-07 11:15 51.20340 0.01006 5086 ft 260 kts 50°
2026-05-07 11:15 51.21472 0.03251 5158 ft 261 kts 41°
2026-05-07 11:15 51.22989 0.04827 5876 ft 262 kts 20°
2026-05-07 11:15 51.24751 0.05493 6058 ft 258 kts
2026-05-07 11:16 51.26526 0.05931 6085 ft 257 kts
2026-05-07 11:16 51.28279 0.06339 6091 ft 257 kts
2026-05-07 11:16 51.30048 0.06749 6092 ft 257 kts
2026-05-07 11:16 51.31823 0.07165 6089 ft 257 kts
2026-05-07 11:17 51.33593 0.07585 6088 ft 257 kts
2026-05-07 11:17 51.35365 0.08010 6091 ft 257 kts
2026-05-07 11:17 51.37131 0.08439 6089 ft 257 kts
2026-05-07 11:17 51.38906 0.08874 6091 ft 257 kts
2026-05-07 11:18 51.40673 0.09313 6090 ft 258 kts
2026-05-07 11:18 51.42451 0.09750 6119 ft 258 kts
2026-05-07 11:18 51.44227 0.10172 6132 ft 259 kts
2026-05-07 11:18 51.46025 0.09890 6779 ft 262 kts 341°
2026-05-07 11:19 51.47628 0.08482 7652 ft 265 kts 325°
2026-05-07 11:19 51.49112 0.06760 8479 ft 269 kts 324°
2026-05-07 11:19 51.50629 0.04964 9294 ft 273 kts 323°
2026-05-07 11:19 51.52168 0.03121 10077 ft 278 kts 323°
2026-05-07 11:20 51.53753 0.01219 10516 ft 294 kts 323°
2026-05-07 11:20 51.55460 -0.00827 10697 ft 318 kts 323°
2026-05-07 11:20 51.57286 -0.03014 10966 ft 335 kts 323°
2026-05-07 11:20 51.59174 -0.05273 11563 ft 341 kts 323°
2026-05-07 11:21 51.61093 -0.07568 12206 ft 346 kts 323°
2026-05-07 11:21 51.63035 -0.09895 12850 ft 350 kts 322°
2026-05-07 11:21 51.64997 -0.12255 13518 ft 354 kts 322°
2026-05-07 11:21 51.66978 -0.14640 14154 ft 357 kts 322°
2026-05-07 11:22 51.68985 -0.17060 14751 ft 361 kts 322°
2026-05-07 11:22 51.71005 -0.19493 15341 ft 364 kts 322°
2026-05-07 11:22 51.73013 -0.21912 15916 ft 367 kts 322°
2026-05-07 11:22 51.75069 -0.24390 16505 ft 370 kts 322°
2026-05-07 11:23 51.77145 -0.26894 17090 ft 373 kts 322°
2026-05-07 11:23 51.79237 -0.29416 17676 ft 377 kts 321°
2026-05-07 11:23 51.81353 -0.31976 18282 ft 380 kts 321°
2026-05-07 11:23 51.83483 -0.34561 18826 ft 384 kts 321°
2026-05-07 11:24 51.85627 -0.37170 19389 ft 387 kts 321°
2026-05-07 11:24 51.87786 -0.39804 19954 ft 390 kts 321°
2026-05-07 11:24 51.89945 -0.42437 20512 ft 393 kts 321°
2026-05-07 11:24 51.92142 -0.45114 21042 ft 397 kts 321°
2026-05-07 11:25 51.94356 -0.47817 21547 ft 400 kts 321°
2026-05-07 11:25 51.96586 -0.50545 22033 ft 403 kts 321°
2026-05-07 11:25 51.98837 -0.53296 22501 ft 406 kts 321°
2026-05-07 11:25 52.01098 -0.56062 22978 ft 409 kts 321°
2026-05-07 11:26 52.03383 -0.58860 23437 ft 412 kts 321°
2026-05-07 11:26 52.05682 -0.61680 23852 ft 415 kts 321°
2026-05-07 11:26 52.07989 -0.64517 24041 ft 416 kts 321°
2026-05-07 11:26 52.10299 -0.67366 24082 ft 426 kts 321°
2026-05-07 11:27 52.12679 -0.70305 24087 ft 430 kts 321°
2026-05-07 11:27 52.15069 -0.73257 24083 ft 431 kts 321°
2026-05-07 11:27 52.17460 -0.76208 24082 ft 431 kts 321°
2026-05-07 11:27 52.19862 -0.79175 24080 ft 431 kts 321°
2026-05-07 11:28 52.22246 -0.82125 24080 ft 432 kts 321°
2026-05-07 11:28 52.24653 -0.85072 24075 ft 432 kts 323°
2026-05-07 11:28 52.27206 -0.87689 24076 ft 433 kts 327°
2026-05-07 11:28 52.29749 -0.90216 24077 ft 433 kts 327°
2026-05-07 11:29 52.32322 -0.92778 24072 ft 433 kts 327°
2026-05-07 11:29 52.34899 -0.95345 24074 ft 434 kts 327°
2026-05-07 11:29 52.37471 -0.97905 24071 ft 427 kts 327°
2026-05-07 11:29 52.39987 -1.00410 24077 ft 421 kts 327°
2026-05-07 11:30 52.42482 -1.02902 24078 ft 420 kts 327°
2026-05-07 11:30 52.44976 -1.05398 24062 ft 419 kts 327°
2026-05-07 11:30 52.47462 -1.07891 23943 ft 418 kts 327°
2026-05-07 11:30 52.49956 -1.10396 22805 ft 426 kts 327°
2026-05-07 11:31 52.52497 -1.12956 21822 ft 428 kts 327°
2026-05-07 11:31 52.55029 -1.15505 21072 ft 425 kts 327°
2026-05-07 11:31 52.57536 -1.18029 20380 ft 420 kts 327°
2026-05-07 11:31 52.60024 -1.20540 19721 ft 416 kts 327°
2026-05-07 11:32 52.64878 -1.25450 18874 ft 400 kts 327°
2026-05-07 11:32 52.67220 -1.27820 18632 ft 390 kts 327°
2026-05-07 11:32 52.69514 -1.30146 18397 ft 386 kts 327°
2026-05-07 11:33 52.71784 -1.32456 18131 ft 384 kts 327°
2026-05-07 11:33 52.74028 -1.34746 17916 ft 382 kts 326°
2026-05-07 11:33 52.76313 -1.37080 17646 ft 380 kts 327°
2026-05-07 11:33 52.78531 -1.39346 17375 ft 379 kts 327°
2026-05-07 11:34 52.80770 -1.41634 17101 ft 377 kts 326°
2026-05-07 11:34 52.83000 -1.43917 16843 ft 376 kts 326°
2026-05-07 11:34 52.85224 -1.46196 16579 ft 374 kts 327°
2026-05-07 11:34 52.87430 -1.48460 16289 ft 370 kts 326°
2026-05-07 11:35 52.89605 -1.50696 15792 ft 366 kts 327°
2026-05-07 11:35 52.91764 -1.52918 15249 ft 363 kts 327°
2026-05-07 11:35 52.93901 -1.55117 14712 ft 360 kts 326°
2026-05-07 11:35 52.96000 -1.57279 14185 ft 358 kts 326°
2026-05-07 11:36 52.98114 -1.59460 13628 ft 356 kts 326°
2026-05-07 11:36 53.00212 -1.61626 13069 ft 353 kts 327°
2026-05-07 11:36 53.02294 -1.63774 12538 ft 350 kts 327°
2026-05-07 11:36 53.04353 -1.65902 12007 ft 348 kts 327°
2026-05-07 11:37 53.06407 -1.68030 11477 ft 346 kts 327°
2026-05-07 11:37 53.08448 -1.70149 10941 ft 346 kts 327°
2026-05-07 11:37 53.10491 -1.72274 10428 ft 345 kts 327°
2026-05-07 11:37 53.12492 -1.74360 9903 ft 332 kts 326°
2026-05-07 11:38 53.14409 -1.76364 9339 ft 319 kts 327°
2026-05-07 11:38 53.16242 -1.78283 8739 ft 310 kts 327°
2026-05-07 11:38 53.18040 -1.80174 8139 ft 301 kts 326°
2026-05-07 11:38 53.19790 -1.82023 7549 ft 294 kts 327°
2026-05-07 11:39 53.21489 -1.83829 7140 ft 281 kts 326°
2026-05-07 11:39 53.23096 -1.85541 7062 ft 270 kts 326°
2026-05-07 11:39 53.24697 -1.87189 7065 ft 270 kts 333°
2026-05-07 11:39 53.26482 -1.88191 7069 ft 272 kts 344°
2026-05-07 11:40 53.28324 -1.88951 7064 ft 273 kts 345°
2026-05-07 11:40 53.30181 -1.89687 6743 ft 274 kts 345°
2026-05-07 11:40 53.32041 -1.90419 6367 ft 275 kts 345°
2026-05-07 11:40 53.33278 -1.90908 6105 ft 276 kts 345°
2026-05-07 11:41 53.35149 -1.91647 5703 ft 276 kts 345°
2026-05-07 11:41 53.37638 -1.92631 5153 ft 278 kts 345°
2026-05-07 11:41 53.38903 -1.93129 5023 ft 274 kts 345°
2026-05-07 11:41 53.40738 -1.93849 5016 ft 269 kts 345°
2026-05-07 11:42 53.42545 -1.94552 4971 ft 263 kts 346°
2026-05-07 11:42 53.44337 -1.95244 4594 ft 262 kts 346°
2026-05-07 11:42 53.46057 -1.95972 4229 ft 252 kts 337°
2026-05-07 11:42 53.47434 -1.97586 3865 ft 238 kts 305°
2026-05-07 11:43 53.48059 -2.00037 3503 ft 224 kts 272°
2026-05-07 11:43 53.48009 -2.02594 3137 ft 216 kts 255°
2026-05-07 11:43 53.47280 -2.04614 3009 ft 199 kts 213°
2026-05-07 11:43 53.46129 -2.05867 2995 ft 194 kts 216°
2026-05-07 11:44 53.45174 -2.07329 3036 ft 181 kts 224°
2026-05-07 11:44 53.44353 -2.08892 2869 ft 177 kts 227°
2026-05-07 11:44 53.43585 -2.10450 2654 ft 171 kts 227°
2026-05-07 11:44 53.42850 -2.11969 2441 ft 166 kts 228°
2026-05-07 11:45 53.42142 -2.13439 2217 ft 160 kts 227°
2026-05-07 11:45 53.41446 -2.14886 2004 ft 158 kts 227°
2026-05-07 11:45 53.40760 -2.16313 1778 ft 154 kts 228°
2026-05-07 11:45 53.40111 -2.17665 1576 ft 148 kts 227°
2026-05-07 11:46 53.39467 -2.19002 1394 ft 142 kts 228°
2026-05-07 11:46 53.38862 -2.20258 1176 ft 138 kts 227°
2026-05-07 11:46 53.38263 -2.21502 981 ft 137 kts 229°
2026-05-07 11:46 53.37663 -2.22746 790 ft 137 kts 229°
2026-05-07 11:47 53.37064 -2.23992 592 ft 136 kts 229°
2026-05-07 11:47 53.36470 -2.25221 405 ft 136 kts 229°
2026-05-07 11:47 53.35880 -2.26451 255 ft 129 kts 230°
2026-05-07 11:47 53.35414 -2.27412 241 ft 82 kts 231°
2026-05-07 11:48 53.35149 -2.27950 233 ft 51 kts 230°
2026-05-07 11:48 53.34983 -2.28351 228 ft 26 kts 263°
2026-05-07 11:48 53.34943 -2.28575 226 ft 22 kts 258°
2026-05-07 11:48 53.34941 -2.28711 225 ft 9 kts 285°
2026-05-07 11:49 53.34953 -2.28730 226 ft 2 kts 322°
2026-05-07 11:49 53.34958 -2.28736 226 ft 1 kts 323°
2026-05-07 11:49 53.34972 -2.28752 225 ft 4 kts 328°
2026-05-07 11:49 53.35017 -2.28741 225 ft 9 kts 36°
2026-05-07 11:50 53.35062 -2.28659 227 ft 10 kts 50°
2026-05-07 11:50 53.35109 -2.28562 228 ft 11 kts 52°
2026-05-07 11:50 53.35166 -2.28437 229 ft 15 kts 52°
2026-05-07 11:50 53.35230 -2.28300 231 ft 15 kts 51°
2026-05-07 11:51 53.35300 -2.28173 233 ft 15 kts 46°
2026-05-07 11:51 53.35383 -2.28040 235 ft 18 kts 42°
2026-05-07 11:51 53.35458 -2.27876 237 ft 18 kts 76°
2026-05-07 11:51 53.35510 -2.27684 238 ft 19 kts 52°
2026-05-07 11:52 53.35595 -2.27507 240 ft 19 kts 51°
2026-05-07 11:52 53.35679 -2.27335 242 ft 19 kts 50°
2026-05-07 11:52 53.35762 -2.27168 245 ft 19 kts 50°
2026-05-07 11:52 53.35838 -2.26998 247 ft 18 kts 64°
2026-05-07 11:53 53.35905 -2.26848 249 ft 7 kts
2026-05-07 11:53 53.35920 -2.26908 248 ft 6 kts 278°
2026-05-07 11:53 53.35927 -2.26992 247 ft 7 kts 277°
2026-05-07 11:53 53.35928 -2.27010 247 ft 0 kts 277°